Weather History for Jacksonville NAS, FL

Change the Weather History Date:

Tuesday, February 21, 2012

  Actual Average Record
Temperature  
Mean Temperature 61 °F -  
Max Temperature 68 °F 67 °F 84 °F (1997)
Min Temperature 54 °F 50 °F 36 °F (2009)
Degree Days  
Heating Degree Days 4    
Growing Degree Days 11 (Base 50)    
Moisture  
Dew Point 50 °F    
Average Humidity 67    
Maximum Humidity 80    
Minimum Humidity 50    
Precipitation  
Precipitation 0.00 in - - ()
Sea Level Pressure  
Sea Level Pressure 30.19 in    
Wind  
Wind Speed 6 mph (ESE)    
Max Wind Speed 9 mph    
Max Gust Speed -    
Visibility 10 miles    
Events      
Averages and records for this station are not official NWS values.
T = Trace of Precipitation, MM = Missing Value Source: NWS Daily Summary

Daily Weather History Graph

Daily Weather History Graph

Search for Another Location

Airport:

Trip Planner

Search our weather history database for the weather conditions in past years. The results will help you decide how hot, cold, wet, or windy it might be!

Date:

Astronomy

Feb. 21, 2012 Rise Set
Actual Time 7:01 AM EST 6:19 PM EST
Civil Twilight 6:37 AM EST 6:43 PM EST
Nautical Twilight 6:09 AM EST 7:11 PM EST
Astronomical Twilight 5:41 AM EST 7:39 PM EST
Moon 6:31 AM EST (2/21) 6:20 PM EST (2/21)
Length of Visible Light 12h 06m
Length of Day
11h 17m
Waning Crescent, 0% of the Moon is Illuminated
Feb 21
Waning Crescent
Feb 21
New
Feb 29
First Quarter
Mar 8
Full
Mar 14
Last Quarter

Hourly Weather History & Observations

Time (EST) Temp. Dew Point Humidity Pressure Visibility Wind Dir Wind Speed Gust Speed Precip Events Conditions
12:53 AM 54.0 °F 45.0 °F 72% 30.24 in 10.0 mi NE 8.1 mph - N/A   Mostly Cloudy
1:53 AM 54.0 °F 46.0 °F 75% 30.22 in 10.0 mi NE 8.1 mph - N/A   Mostly Cloudy
2:53 AM 55.0 °F 46.0 °F 72% 30.21 in 10.0 mi NE 8.1 mph - N/A   Mostly Cloudy
3:53 AM 55.0 °F 48.0 °F 77% 30.20 in 10.0 mi NNE 6.9 mph - N/A   Mostly Cloudy
4:53 AM 55.9 °F 48.9 °F 77% 30.19 in 10.0 mi NE 5.8 mph - N/A   Mostly Cloudy
5:53 AM 55.0 °F 48.9 °F 80% 30.20 in 10.0 mi NNE 4.6 mph - N/A   Scattered Clouds
6:53 AM 55.0 °F 48.9 °F 80% 30.20 in 10.0 mi NE 3.5 mph - N/A   Scattered Clouds
7:53 AM 55.0 °F 48.9 °F 80% 30.23 in 10.0 mi NNW 5.8 mph - N/A   Mostly Cloudy
8:53 AM 57.0 °F 50.0 °F 77% 30.27 in 10.0 mi NNW 8.1 mph - N/A   Mostly Cloudy
9:53 AM 60.1 °F 51.1 °F 72% 30.29 in 10.0 mi North 6.9 mph - N/A   Mostly Cloudy
10:53 AM 66.9 °F 52.0 °F 59% 30.27 in 10.0 mi Calm Calm - N/A   Mostly Cloudy
11:53 AM 68.0 °F 48.9 °F 50% 30.25 in 10.0 mi SSE 9.2 mph - N/A   Overcast
12:53 PM 66.9 °F 48.9 °F 52% 30.22 in 10.0 mi South 6.9 mph - N/A   Overcast
1:53 PM 66.9 °F 48.9 °F 52% 30.19 in 10.0 mi South 6.9 mph - N/A   Overcast
2:53 PM 68.0 °F 50.0 °F 52% 30.16 in 10.0 mi SSE 6.9 mph - 0.00 in   Overcast
3:00 PM - - N/A% - - North - - N/A   Unknown
3:53 PM 68.0 °F 51.1 °F 55% 30.15 in 10.0 mi South 8.1 mph - N/A   Overcast
4:53 PM 68.0 °F 51.1 °F 55% 30.14 in 10.0 mi South 4.6 mph - N/A   Overcast
5:53 PM 68.0 °F 51.1 °F 55% 30.13 in 10.0 mi East 3.5 mph - N/A   Mostly Cloudy
6:53 PM 66.0 °F 51.1 °F 59% 30.13 in 10.0 mi SE 3.5 mph - N/A   Mostly Cloudy
7:53 PM 64.9 °F 53.1 °F 65% 30.12 in 10.0 mi SSE 4.6 mph - N/A   Mostly Cloudy
8:53 PM 64.0 °F 53.1 °F 67% 30.14 in 10.0 mi South 4.6 mph - N/A   Mostly Cloudy
9:53 PM 63.0 °F 55.0 °F 75% 30.14 in 10.0 mi South 4.6 mph - N/A   Mostly Cloudy
10:53 PM 62.1 °F 54.0 °F 75% 30.14 in 10.0 mi SW 3.5 mph - N/A   Mostly Cloudy
11:53 PM 62.1 °F 54.0 °F 75% 30.12 in 10.0 mi SSW 3.5 mph - N/A   Mostly Cloudy